B4081 LICC-EDDE

Flight info

Callsign B4081
Flight time 2h 14m
Altitude 40000
Route PEKOD T111 BUDIN DCT SUXUB DCT UTENO DCT ANC DCT AGOMO DCT BRENO M726 NARUS NARUS1V
Aircraft B738/M-SDE2E3FGHIRWXY/LB1

Departure

Time 2026-05-04 14:20
Airport Catania-Fontanarossa Airport (LICC)

Arrival

Time 2026-05-04 16:35
Airport Erfurt-Weimar Airport (EDDE)
Time Latitude Longitude Altitude Speed Heading
2026-05-04 13:47 37.46875 15.06092 50 ft 0 kts 354°
2026-05-04 13:58 37.46874 15.06092 50 ft 0 kts 354°
2026-05-04 14:10 37.46853 15.06096 50 ft 4 kts 343°
2026-05-04 14:10 37.46828 15.06109 46 ft 4 kts 326°
2026-05-04 14:10 37.46809 15.06131 48 ft 4 kts 298°
2026-05-04 14:10 37.46803 15.06156 50 ft 1 kts 264°
2026-05-04 14:13 37.46803 15.06152 50 ft 2 kts 264°
2026-05-04 14:13 37.46800 15.06118 49 ft 6 kts 264°
2026-05-04 14:13 37.46795 15.06062 50 ft 6 kts 264°
2026-05-04 14:14 37.46790 15.06002 50 ft 8 kts 264°
2026-05-04 14:14 37.46775 15.05820 50 ft 12 kts 263°
2026-05-04 14:14 37.46766 15.05716 50 ft 12 kts 264°
2026-05-04 14:15 37.46750 15.05517 48 ft 11 kts 264°
2026-05-04 14:15 37.46731 15.05330 50 ft 11 kts 242°
2026-05-04 14:16 37.46672 15.05257 50 ft 0 kts 223°
2026-05-04 14:18 37.46633 15.05212 50 ft 10 kts 222°
2026-05-04 14:19 37.46563 15.05277 50 ft 0 kts 83°
2026-05-04 14:19 37.46588 15.05576 49 ft 71 kts 84°
2026-05-04 14:19 37.46664 15.06479 48 ft 133 kts 84°
2026-05-04 14:20 37.46753 15.07785 376 ft 154 kts 88°
2026-05-04 14:20 37.46905 15.09113 1122 ft 159 kts 76°
2026-05-04 14:20 37.47272 15.10516 1606 ft 174 kts 80°
2026-05-04 14:21 37.47744 15.13881 2316 ft 221 kts 82°
2026-05-04 14:21 37.48000 15.15888 2542 ft 241 kts 82°
2026-05-04 14:21 37.48269 15.18013 3032 ft 249 kts 82°
2026-05-04 14:21 37.48552 15.20254 3395 ft 269 kts 82°
2026-05-04 14:22 37.48849 15.22616 4110 ft 274 kts 81°
2026-05-04 14:22 37.49148 15.24995 4944 ft 276 kts 81°
2026-05-04 14:22 37.49444 15.27356 5773 ft 276 kts 80°
2026-05-04 14:22 37.49769 15.29709 6685 ft 275 kts 73°
2026-05-04 14:23 37.52014 15.33578 8135 ft 281 kts 47°
2026-05-04 14:23 37.53344 15.35446 8946 ft 285 kts 47°
2026-05-04 14:23 37.54683 15.37303 9790 ft 287 kts 41°
2026-05-04 14:24 37.56384 15.38600 10487 ft 291 kts 21°
2026-05-04 14:24 37.58342 15.39579 10715 ft 316 kts 19°
2026-05-04 14:24 37.60431 15.40594 11021 ft 335 kts 19°
2026-05-04 14:24 37.62632 15.41674 11630 ft 343 kts 19°
2026-05-04 14:25 37.64867 15.42789 12385 ft 347 kts 19°
2026-05-04 14:25 37.69396 15.45074 13978 ft 355 kts 18°
2026-05-04 14:25 37.71797 15.45699 14676 ft 353 kts 357°
2026-05-04 14:26 37.74201 15.45201 15476 ft 351 kts 339°
2026-05-04 14:26 37.76484 15.44101 16284 ft 352 kts 336°
2026-05-04 14:26 37.78765 15.42919 17017 ft 357 kts 335°
2026-05-04 14:26 37.81077 15.41715 17756 ft 361 kts 336°
2026-05-04 14:27 37.83414 15.40514 18494 ft 365 kts 336°
2026-05-04 14:27 37.85776 15.39318 19169 ft 367 kts 336°
2026-05-04 14:27 37.88157 15.38124 19869 ft 369 kts 336°
2026-05-04 14:27 37.90547 15.36927 20539 ft 371 kts 336°
2026-05-04 14:28 37.92958 15.35718 21202 ft 373 kts 335°
2026-05-04 14:28 37.95378 15.34504 21824 ft 376 kts 335°
2026-05-04 14:28 37.97819 15.33278 22431 ft 379 kts 335°
2026-05-04 14:28 38.00281 15.32039 23047 ft 382 kts 335°
2026-05-04 14:29 38.05255 15.29534 24157 ft 386 kts 335°
2026-05-04 14:29 38.10278 15.27001 25130 ft 391 kts 335°
2026-05-04 14:30 38.12811 15.25726 25652 ft 392 kts 335°
2026-05-04 14:30 38.15358 15.24440 26146 ft 394 kts 335°
2026-05-04 14:30 38.20473 15.21849 27142 ft 397 kts 335°
2026-05-04 14:31 38.23043 15.20547 27604 ft 399 kts 335°
2026-05-04 14:31 38.28227 15.17919 28477 ft 403 kts 335°
2026-05-04 14:32 38.33451 15.15266 29323 ft 406 kts 335°
2026-05-04 14:32 38.36048 15.13937 29721 ft 408 kts 335°
2026-05-04 14:32 38.38683 15.12584 30140 ft 409 kts 335°
2026-05-04 14:32 38.41328 15.11224 30482 ft 411 kts 335°
2026-05-04 14:33 38.43978 15.09863 30849 ft 411 kts 334°
2026-05-04 14:33 38.46620 15.08512 31340 ft 408 kts 335°
2026-05-04 14:33 38.49322 15.07434 31918 ft 406 kts 342°
2026-05-04 14:33 38.52061 15.06680 32514 ft 401 kts 343°
2026-05-04 14:34 38.54780 15.05944 33020 ft 398 kts 343°
2026-05-04 14:34 38.57478 15.05211 33470 ft 395 kts 343°
2026-05-04 14:34 38.60159 15.04476 33940 ft 393 kts 342°
2026-05-04 14:34 38.62820 15.03741 34351 ft 390 kts 342°
2026-05-04 14:35 38.65476 15.03001 34635 ft 391 kts 342°
2026-05-04 14:35 38.68139 15.02255 34847 ft 393 kts 342°
2026-05-04 14:35 38.70804 15.01507 35139 ft 392 kts 342°
2026-05-04 14:35 38.72610 15.01000 35353 ft 392 kts 342°
2026-05-04 14:36 38.75271 15.00252 35645 ft 392 kts 342°
2026-05-04 14:36 38.77900 14.99512 35898 ft 392 kts 342°
2026-05-04 14:36 38.80598 14.98752 36174 ft 392 kts 342°
2026-05-04 14:36 38.83227 14.98011 36459 ft 392 kts 342°
2026-05-04 14:37 38.85893 14.97260 36774 ft 391 kts 342°
2026-05-04 14:37 38.88548 14.96511 37067 ft 390 kts 342°
2026-05-04 14:37 38.91201 14.95761 37314 ft 391 kts 342°
2026-05-04 14:37 38.93857 14.95010 37572 ft 391 kts 342°
2026-05-04 14:38 38.96512 14.94259 37846 ft 390 kts 342°
2026-05-04 14:38 38.99160 14.93510 38106 ft 390 kts 343°
2026-05-04 14:38 39.01815 14.92757 38356 ft 390 kts 343°
2026-05-04 14:38 39.04472 14.92003 38527 ft 392 kts 342°
2026-05-04 14:39 39.07136 14.91247 38743 ft 392 kts 342°
2026-05-04 14:39 39.09808 14.90488 38895 ft 394 kts 342°
2026-05-04 14:39 39.12485 14.89727 39054 ft 394 kts 342°
2026-05-04 14:40 39.17851 14.88200 39361 ft 396 kts 342°
2026-05-04 14:40 39.20540 14.87434 39515 ft 396 kts 342°
2026-05-04 14:40 39.23234 14.86666 39675 ft 396 kts 342°
2026-05-04 14:40 39.25927 14.85898 39820 ft 397 kts 342°
2026-05-04 14:41 39.28625 14.85127 39968 ft 398 kts 342°
2026-05-04 14:41 39.31334 14.84353 40107 ft 398 kts 342°
2026-05-04 14:42 39.42220 14.81237 40134 ft 400 kts 342°
2026-05-04 14:42 39.47642 14.79683 40135 ft 397 kts 342°
2026-05-04 14:43 39.53027 14.78135 40155 ft 396 kts 342°
2026-05-04 14:43 39.58362 14.76599 40143 ft 395 kts 342°
2026-05-04 14:44 39.63725 14.75052 40136 ft 395 kts 342°
2026-05-04 14:44 39.69091 14.73502 40137 ft 395 kts 342°
2026-05-04 14:45 39.74455 14.71949 40136 ft 395 kts 342°
2026-05-04 14:45 39.79824 14.70372 40137 ft 396 kts 341°
2026-05-04 14:46 39.85197 14.68720 40138 ft 397 kts 341°
2026-05-04 14:46 39.90580 14.67053 40137 ft 398 kts 341°
2026-05-04 14:47 39.95975 14.65386 40136 ft 399 kts 341°
2026-05-04 14:47 40.01385 14.63717 40140 ft 400 kts 341°
2026-05-04 14:48 40.06809 14.62042 40136 ft 401 kts 341°
2026-05-04 14:48 40.12251 14.60360 40137 ft 402 kts 341°
2026-05-04 14:49 40.17692 14.58675 40140 ft 402 kts 341°
2026-05-04 14:49 40.23136 14.56986 40148 ft 402 kts 341°
2026-05-04 14:50 40.28577 14.55296 40139 ft 402 kts 341°
2026-05-04 14:50 40.34013 14.53604 40137 ft 401 kts 341°
2026-05-04 14:51 40.39441 14.51912 40142 ft 400 kts 341°
2026-05-04 14:51 40.44858 14.50221 40150 ft 400 kts 341°
2026-05-04 14:52 40.50266 14.48529 40144 ft 399 kts 341°
2026-05-04 14:52 40.55664 14.46838 40144 ft 399 kts 341°
2026-05-04 14:53 40.61064 14.45143 40145 ft 398 kts 341°
2026-05-04 14:53 40.66450 14.43450 40148 ft 398 kts 341°
2026-05-04 14:54 40.71820 14.41758 40148 ft 399 kts 341°
2026-05-04 14:54 40.77222 14.40054 40149 ft 399 kts 341°
2026-05-04 14:55 40.82616 14.38350 40161 ft 399 kts 341°
2026-05-04 14:55 40.88025 14.36638 40170 ft 400 kts 341°
2026-05-04 14:56 40.93443 14.34920 40157 ft 401 kts 341°
2026-05-04 14:56 40.98866 14.33199 40157 ft 401 kts 341°
2026-05-04 14:57 41.04293 14.31473 40155 ft 401 kts 341°
2026-05-04 14:57 41.09715 14.29745 40161 ft 401 kts 341°
2026-05-04 14:58 41.15136 14.28015 40158 ft 401 kts 341°
2026-05-04 14:58 41.20560 14.26282 40148 ft 401 kts 341°
2026-05-04 14:59 41.25983 14.24544 40154 ft 401 kts 341°
2026-05-04 15:00 41.34093 14.21941 40144 ft 402 kts 341°
2026-05-04 15:00 41.39568 14.20180 40139 ft 402 kts 341°
2026-05-04 15:01 41.47696 14.17561 40124 ft 403 kts 341°
2026-05-04 15:01 41.53185 14.15788 40145 ft 403 kts 341°
2026-05-04 15:02 41.58607 14.14033 40127 ft 404 kts 341°
2026-05-04 15:02 41.64076 14.12260 40128 ft 404 kts 341°
2026-05-04 15:03 41.69553 14.10482 40115 ft 405 kts 341°
2026-05-04 15:03 41.75028 14.08702 40127 ft 405 kts 341°
2026-05-04 15:04 41.80516 14.06913 40130 ft 406 kts 341°
2026-05-04 15:04 41.86014 14.05118 40119 ft 407 kts 341°
2026-05-04 15:05 41.91523 14.03317 40089 ft 407 kts 341°
2026-05-04 15:05 41.97022 14.01516 40108 ft 407 kts 341°
2026-05-04 15:06 42.02523 13.99711 40098 ft 407 kts 341°
2026-05-04 15:07 42.10778 13.96996 40096 ft 408 kts 341°
2026-05-04 15:07 42.16249 13.95193 40099 ft 407 kts 341°
2026-05-04 15:08 42.21758 13.93373 40097 ft 408 kts 341°
2026-05-04 15:08 42.27271 13.91550 40090 ft 408 kts 341°
2026-05-04 15:09 42.32783 13.89723 40079 ft 408 kts 341°
2026-05-04 15:09 42.38291 13.87894 40092 ft 408 kts 341°
2026-05-04 15:10 42.46550 13.85146 40075 ft 408 kts 341°
2026-05-04 15:11 42.54830 13.82382 40084 ft 409 kts 341°
2026-05-04 15:11 42.60363 13.80532 40084 ft 410 kts 341°
2026-05-04 15:12 42.65913 13.78672 40089 ft 412 kts 341°
2026-05-04 15:12 42.71489 13.76801 40087 ft 413 kts 341°
2026-05-04 15:13 42.77070 13.74924 40093 ft 414 kts 341°
2026-05-04 15:13 42.82664 13.73039 40087 ft 415 kts 341°
2026-05-04 15:14 42.88278 13.71144 40089 ft 416 kts 341°
2026-05-04 15:14 42.93898 13.69244 40084 ft 417 kts 341°
2026-05-04 15:15 42.99495 13.67348 40090 ft 417 kts 341°
2026-05-04 15:15 43.05139 13.65432 40092 ft 418 kts 341°
2026-05-04 15:16 43.13613 13.62549 40082 ft 419 kts 341°
2026-05-04 15:17 43.22105 13.59651 40088 ft 419 kts 341°
2026-05-04 15:17 43.30611 13.56740 40078 ft 420 kts 341°
2026-05-04 15:18 43.36288 13.54792 40077 ft 420 kts 341°
2026-05-04 15:19 43.43841 13.52196 40084 ft 420 kts 341°
2026-05-04 15:19 43.52361 13.49257 40078 ft 421 kts 341°
2026-05-04 15:20 43.58039 13.47295 40088 ft 421 kts 341°
2026-05-04 15:20 43.63624 13.44960 40080 ft 419 kts 337°
2026-05-04 15:21 43.69145 13.42371 40079 ft 419 kts 337°
2026-05-04 15:22 43.77450 13.38494 40077 ft 420 kts 337°
2026-05-04 15:22 43.85697 13.34694 40078 ft 422 kts 338°
2026-05-04 15:23 43.91082 13.32215 40076 ft 423 kts 338°
2026-05-04 15:23 43.96363 13.29780 40071 ft 424 kts 338°
2026-05-04 15:24 44.07227 13.24754 40074 ft 424 kts 338°
2026-05-04 15:25 44.12756 13.22189 40076 ft 425 kts 338°
2026-05-04 15:26 44.21076 13.18319 40073 ft 425 kts 337°
2026-05-04 15:26 44.29356 13.14455 40068 ft 425 kts 337°
2026-05-04 15:27 44.37717 13.10543 40069 ft 425 kts 337°
2026-05-04 15:28 44.46125 13.06596 40074 ft 425 kts 338°
2026-05-04 15:29 44.54547 13.02630 40067 ft 426 kts 338°
2026-05-04 15:30 44.73556 12.93635 40073 ft 427 kts 337°
2026-05-04 15:31 44.81978 12.89630 40066 ft 428 kts 337°
2026-05-04 15:32 44.96035 12.82917 40065 ft 430 kts 338°
2026-05-04 15:34 45.09655 12.74823 40064 ft 427 kts 329°
2026-05-04 15:34 45.17603 12.69106 40067 ft 428 kts 330°
2026-05-04 15:35 45.25591 12.63456 40061 ft 428 kts 330°
2026-05-04 15:36 45.33568 12.57831 40060 ft 429 kts 330°
2026-05-04 15:36 45.38917 12.54050 40054 ft 429 kts 330°
2026-05-04 15:37 45.44261 12.50262 40047 ft 429 kts 330°
2026-05-04 15:37 45.49610 12.46463 40058 ft 429 kts 330°
2026-05-04 15:38 45.54962 12.42654 40050 ft 430 kts 330°
2026-05-04 15:38 45.60317 12.38835 40050 ft 430 kts 330°
2026-05-04 15:39 45.65674 12.35005 40050 ft 431 kts 330°
2026-05-04 15:40 45.73712 12.29244 40070 ft 431 kts 330°
2026-05-04 15:40 45.79078 12.25387 40071 ft 432 kts 329°
2026-05-04 15:41 45.84451 12.21518 40067 ft 432 kts 329°
2026-05-04 15:41 45.89827 12.17637 40069 ft 433 kts 329°
2026-05-04 15:42 45.95213 12.13741 40075 ft 433 kts 330°
2026-05-04 15:42 46.00604 12.09832 40071 ft 434 kts 330°
2026-05-04 15:43 46.05991 12.05919 40077 ft 434 kts 330°
2026-05-04 15:43 46.11380 12.01995 40083 ft 434 kts 330°
2026-05-04 15:44 46.16770 11.98061 40090 ft 434 kts 329°
2026-05-04 15:44 46.22160 11.94119 40081 ft 435 kts 329°
2026-05-04 15:45 46.27550 11.90168 40068 ft 434 kts 329°
2026-05-04 15:45 46.32924 11.86221 40081 ft 433 kts 329°
2026-05-04 15:46 46.38303 11.82260 40081 ft 435 kts 329°
2026-05-04 15:46 46.43686 11.78288 40068 ft 435 kts 330°
2026-05-04 15:47 46.49068 11.74308 40068 ft 433 kts 329°
2026-05-04 15:47 46.54441 11.70324 40044 ft 434 kts 329°
2026-05-04 15:48 46.59810 11.66335 40044 ft 433 kts 330°
2026-05-04 15:48 46.67830 11.60361 40044 ft 434 kts 330°
2026-05-04 15:49 46.73201 11.56348 40036 ft 434 kts 329°
2026-05-04 15:49 46.78560 11.52335 40037 ft 433 kts 329°
2026-05-04 15:50 46.83911 11.48320 40042 ft 433 kts 329°
2026-05-04 15:50 46.89271 11.44287 40046 ft 433 kts 329°
2026-05-04 15:51 46.94644 11.40266 40019 ft 435 kts 333°
2026-05-04 15:51 47.00538 11.38049 40013 ft 444 kts 352°
2026-05-04 15:52 47.06745 11.38403 40016 ft 448 kts
2026-05-04 15:52 47.12963 11.39168 39922 ft 448 kts
2026-05-04 15:53 47.19176 11.39823 39949 ft 448 kts
2026-05-04 15:53 47.25411 11.40322 39939 ft 449 kts 358°
2026-05-04 15:54 47.31647 11.40241 39942 ft 448 kts 356°
2026-05-04 15:54 47.37901 11.40189 39947 ft 450 kts 357°
2026-05-04 15:55 47.44174 11.40165 39938 ft 451 kts 356°
2026-05-04 15:55 47.50440 11.40104 39941 ft 450 kts 356°
2026-05-04 15:56 47.56704 11.40047 39934 ft 449 kts 356°
2026-05-04 15:56 47.62947 11.39966 39934 ft 447 kts 354°
2026-05-04 15:57 47.69127 11.39206 39941 ft 445 kts 351°
2026-05-04 15:57 47.75274 11.38238 39932 ft 444 kts 351°
2026-05-04 15:58 47.81421 11.37367 39935 ft 444 kts 352°
2026-05-04 15:58 47.87566 11.36561 39950 ft 444 kts 353°
2026-05-04 15:59 47.93744 11.36059 39937 ft 445 kts 354°
2026-05-04 15:59 47.99927 11.35586 39947 ft 445 kts 354°
2026-05-04 16:00 48.05068 11.35152 39935 ft 445 kts 354°
2026-05-04 16:00 48.11228 11.34275 39946 ft 444 kts 349°
2026-05-04 16:01 48.17353 11.32981 39944 ft 445 kts 349°
2026-05-04 16:01 48.23499 11.31741 39946 ft 446 kts 349°
2026-05-04 16:02 48.29668 11.30608 39945 ft 447 kts 351°
2026-05-04 16:03 48.38981 11.29195 39943 ft 449 kts 351°
2026-05-04 16:03 48.45192 11.28238 39945 ft 449 kts 351°
2026-05-04 16:04 48.51410 11.27258 39950 ft 449 kts 351°
2026-05-04 16:04 48.60740 11.25781 39943 ft 450 kts 351°
2026-05-04 16:05 48.67006 11.24780 39410 ft 454 kts 351°
2026-05-04 16:05 48.73262 11.23752 38278 ft 452 kts 351°
2026-05-04 16:06 48.76392 11.23236 37617 ft 452 kts 351°
2026-05-04 16:06 48.84654 11.21893 36287 ft 443 kts 353°
2026-05-04 16:07 48.88755 11.21711 35694 ft 440 kts 358°
2026-05-04 16:07 48.97836 11.21928 34427 ft 430 kts 358°
2026-05-04 16:08 49.00826 11.21978 34017 ft 427 kts 358°
2026-05-04 16:08 49.09615 11.22042 32704 ft 417 kts 357°
2026-05-04 16:09 49.15374 11.22069 31880 ft 411 kts 357°
2026-05-04 16:09 49.21054 11.22100 31097 ft 405 kts 356°
2026-05-04 16:10 49.26649 11.22145 30328 ft 399 kts 356°
2026-05-04 16:11 49.34867 11.22222 29089 ft 389 kts 356°
2026-05-04 16:11 49.37561 11.22247 28672 ft 386 kts 356°
2026-05-04 16:12 49.45511 11.22318 27480 ft 377 kts 356°
2026-05-04 16:12 49.53289 11.22386 26308 ft 371 kts 356°
2026-05-04 16:13 49.58419 11.22422 25551 ft 367 kts 356°
2026-05-04 16:13 49.63510 11.22441 24800 ft 364 kts 356°
2026-05-04 16:14 49.68575 11.22462 24040 ft 363 kts 357°
2026-05-04 16:14 49.73619 11.22485 23217 ft 361 kts 357°
2026-05-04 16:15 49.81098 11.22516 22042 ft 356 kts 357°
2026-05-04 16:16 49.86022 11.22532 21299 ft 352 kts 357°
2026-05-04 16:16 49.93318 11.22555 20203 ft 347 kts 357°
2026-05-04 16:17 49.98133 11.22570 19477 ft 345 kts 357°
2026-05-04 16:18 50.05300 11.22593 18383 ft 343 kts 357°
2026-05-04 16:18 50.07689 11.22601 17971 ft 343 kts 357°
2026-05-04 16:19 50.14801 11.22649 16849 ft 338 kts 358°
2026-05-04 16:19 50.19467 11.22683 16138 ft 333 kts 358°
2026-05-04 16:20 50.26372 11.22732 15082 ft 328 kts 358°
2026-05-04 16:20 50.30884 11.22763 14392 ft 325 kts 359°
2026-05-04 16:21 50.37628 11.22686 13369 ft 318 kts 354°
2026-05-04 16:22 50.41972 11.22020 12838 ft 311 kts 352°
2026-05-04 16:22 50.48323 11.20995 11905 ft 303 kts 352°
2026-05-04 16:23 50.54594 11.20038 10876 ft 302 kts 353°
2026-05-04 16:24 50.62608 11.18834 9815 ft 290 kts 353°
2026-05-04 16:25 50.66607 11.18419 9141 ft 289 kts
2026-05-04 16:26 50.73874 11.24100 7699 ft 290 kts 28°
2026-05-04 16:26 50.79021 11.28478 6824 ft 285 kts 27°
2026-05-04 16:27 50.82499 11.31418 6290 ft 280 kts 27°
2026-05-04 16:28 50.87520 11.35094 5916 ft 253 kts
2026-05-04 16:28 50.92497 11.36020 5615 ft 230 kts
2026-05-04 16:29 50.95332 11.29463 4953 ft 205 kts 276°
2026-05-04 16:30 50.95868 11.22781 4156 ft 198 kts 276°
2026-05-04 16:31 50.96191 11.18599 3641 ft 184 kts 276°
2026-05-04 16:31 50.96653 11.12654 2917 ft 177 kts 276°
2026-05-04 16:32 50.97050 11.07571 2323 ft 153 kts 276°
2026-05-04 16:33 50.97318 11.04167 1911 ft 158 kts 278°
2026-05-04 16:33 50.97560 11.01049 1537 ft 134 kts 278°
2026-05-04 16:34 50.97780 10.98227 1145 ft 124 kts 279°
2026-05-04 16:34 50.97897 10.96833 1035 ft 127 kts 279°
2026-05-04 16:35 50.98090 10.94463 1028 ft 32 kts 277°
2026-05-04 16:35 50.97996 10.94112 1027 ft 13 kts 144°
2026-05-04 16:36 50.97944 10.94215 1028 ft 12 kts 99°
2026-05-04 16:36 50.97922 10.94484 1029 ft 13 kts 97°
2026-05-04 16:37 50.97870 10.94872 1029 ft 22 kts 122°
2026-05-04 16:37 50.97823 10.95097 1029 ft 22 kts 97°
2026-05-04 16:37 50.97787 10.95558 1028 ft 20 kts 97°
2026-05-04 16:38 50.97752 10.95987 1027 ft 18 kts 96°
2026-05-04 16:39 50.97683 10.96433 1026 ft 9 kts 182°
2026-05-04 16:39 50.97624 10.96363 1024 ft 6 kts 278°
2026-05-04 16:40 50.97628 10.96318 1026 ft 0 kts 277°
2026-05-04 16:40 50.97628 10.96314 1026 ft 0 kts 277°